FW9243 Weather Reports


time (UTC)temp
F
wind
direction
speed
knots
gust
knots
rain 1hr
in
rain 24hr
in
rain mn
in
humidity
%
barometer
mb
20260904223403 67 178 0.9 0.9 0.00 0.00 0.00 90 1022.0
20260904223303 67 134 0.0 0.9 0.00 0.00 0.00 90 1021.4
20260904223046 67 0 0.0 0.9 0.00 0.00 0.00 100 1022.7
20260904222902 67 135 0.9 0.9 0.00 0.00 0.00 90 1022.0
20260904222804 67 167 0.0 0.9 0.00 0.00 0.00 89 1021.4
20260904222402 67 223 0.0 0.9 0.00 0.00 0.00 89 1021.9
20260904222306 67 166 0.0 0.9 0.00 0.00 0.00 89 1021.3
20260904221902 67 206 0.0 0.9 0.00 0.00 0.00 89 1021.8
20260904221803 67 180 0.0 0.9 0.00 0.00 0.00 89 1021.4
20260904221544 75 0 0.0 0.0 0.00 0.00 0.00 100 1022.6
20260904221402 68 269 0.0 0.9 0.00 0.00 0.00 89 1021.9
20260904221304 68 182 0.0 0.9 0.00 0.00 0.00 89 1021.4
20260904220902 68 28 0.0 0.9 0.00 0.00 0.00 89 1022.0
20260904220402 68 45 0.0 0.9 0.00 0.00 0.00 89 1021.9
20260904220304 68 342 0.0 0.9 0.00 0.00 0.00 89 1021.4
20260904220044 75 0 0.0 0.9 0.00 0.00 0.00 100 1022.6
20260904215902 68 63 0.0 0.9 0.00 0.00 0.00 89 1021.9
20260904215804 68 10 0.0 0.9 0.00 0.00 0.00 89 1021.3
20260904215402 68 178 0.0 1.7 0.00 0.00 0.00 89 1021.8
20260904214903 68 63 0.9 1.7 0.00 0.00 0.00 89 1021.8
20260904214547 75 196 0.0 0.9 0.00 0.00 0.00 100 1022.6
20260904214402 68 152 0.9 1.7 0.00 0.00 0.00 89 1021.9
20260904214303 68 165 0.9 1.7 0.00 0.00 0.00 88 1021.3
20260904213902 68 152 0.9 1.7 0.00 0.00 0.00 88 1021.7
20260904213803 68 171 0.9 1.7 0.00 0.00 0.00 88 1021.1
20260904213401 68 45 0.9 1.7 0.00 0.00 0.00 88 1021.6
20260904213304 68 342 0.0 1.7 0.00 0.00 0.00 88 1021.2
20260904213044 75 0 0.9 0.9 0.00 0.00 0.00 100 1022.5
20260904212902 68 89 0.9 1.7 0.00 0.00 0.00 88 1021.7
20260904212803 68 56 0.9 1.7 0.00 0.00 0.00 88 1021.2
20260904212403 68 269 0.0 0.9 0.00 0.00 0.00 88 1021.8
20260904212306 68 328 0.0 0.9 0.00 0.00 0.00 88 1021.3
20260904211903 68 135 0.9 0.9 0.00 0.00 0.00 87 1022.0
20260904211804 68 241 0.9 0.9 0.00 0.00 0.00 87 1021.6
20260904211542 75 0 0.0 0.9 0.00 0.00 0.00 100 1022.7
20260904211402 68 135 0.9 0.9 0.00 0.00 0.00 87 1022.0
20260904211304 68 118 0.0 0.9 0.00 0.00 0.00 87 1021.5
20260904210902 69 178 0.9 0.9 0.00 0.00 0.00 87 1022.1
20260904210803 69 114 0.0 0.9 0.00 0.00 0.00 87 1021.5
20260904210402 69 178 0.0 0.9 0.00 0.00 0.00 86 1022.1
20260904210303 69 107 0.0 0.9 0.00 0.00 0.00 86 1021.6
20260904210049 75 0 0.0 0.9 0.00 0.00 0.00 100 1022.8
20260904205903 69 223 0.0 0.9 0.00 0.00 0.00 86 1022.2
20260904205803 69 355 0.0 0.9 0.00 0.00 0.00 86 1021.6
20260904205401 69 269 0.9 0.9 0.00 0.00 0.00 86 1022.1
20260904205305 69 233 0.9 1.7 0.00 0.00 0.00 86 1021.6
20260904204902 69 213 0.0 0.9 0.00 0.00 0.00 86 1022.0
20260904204544 75 221 0.0 0.9 0.00 0.00 0.00 100 1022.8
20260904204402 69 241 0.9 0.9 0.00 0.00 0.00 86 1022.1
20260904204304 69 229 0.0 0.9 0.00 0.00 0.00 86 1021.5
20260904203903 69 269 0.0 0.9 0.00 0.00 0.00 86 1022.1
20260904203804 69 221 0.0 0.9 0.00 0.00 0.00 86 1021.5
20260904203402 69 223 0.0 0.9 0.00 0.00 0.00 86 1022.1
20260904203303 69 220 0.9 0.9 0.00 0.00 0.00 86 1021.5
20260904203045 75 221 0.0 0.9 0.00 0.00 0.00 100 1022.7
20260904202905 69 234 0.0 0.9 0.00 0.00 0.00 85 1022.0
20260904202803 69 215 0.0 0.9 0.00 0.00 0.00 85 1021.5
20260904202404 69 269 0.0 0.9 0.00 0.00 0.00 85 1021.9
20260904201901 69 1 0.0 0.9 0.00 0.00 0.00 85 1022.0
20260904201803 69 244 0.0 0.9 0.00 0.00 0.00 85 1021.4
20260904201633 70 45 0.0 0.9 0.00 0.00 0.00 84 1021.9
20260904201547 75 51 0.0 0.0 0.00 0.00 0.00 100 1022.7
20260904201304 70 246 0.0 0.9 0.00 0.00 0.00 84 1021.4
20260904200902 70 223 0.0 0.9 0.00 0.00 0.00 84 1021.8
20260904200803 70 229 0.0 0.9 0.00 0.00 0.00 84 1021.3
20260904200401 70 269 0.0 0.9 0.00 0.00 0.00 84 1021.9
20260904200303 70 252 0.0 0.9 0.00 0.00 0.00 84 1021.3
20260904200120 70 45 0.0 0.9 0.00 0.00 0.00 84 1021.9
20260904200055 75 0 0.0 0.9 0.00 0.00 0.00 100 1022.6
20260904195905 70 45 0.0 0.9 0.00 0.00 0.00 84 1021.9
20260904195804 70 262 0.0 0.9 0.00 0.00 0.00 84 1021.4
20260904195627 70 223 0.0 0.9 0.00 0.00 0.00 84 1022.0
20260904195306 70 221 0.0 0.9 0.00 0.00 0.00 84 1021.4
20260904194902 70 251 0.0 0.9 0.00 0.00 0.00 84 1021.9
20260904194804 70 224 0.0 0.9 0.00 0.00 0.00 84 1021.3
20260904194545 75 0 0.0 0.9 0.00 0.00 0.00 100 1022.5
20260904194402 70 178 0.0 0.9 0.00 0.00 0.00 83 1021.7
20260904194303 70 69 0.0 0.9 0.00 0.00 0.00 83 1021.1
20260904193902 70 45 0.0 1.7 0.00 0.00 0.00 83 1021.7
20260904193804 70 352 0.0 1.7 0.00 0.00 0.00 83 1021.1
20260904193402 71 45 0.9 1.7 0.00 0.00 0.00 83 1021.6
20260904193303 71 53 0.9 1.7 0.00 0.00 0.00 83 1021.0
20260904193050 75 26 0.0 0.9 0.00 0.00 0.00 100 1022.3
20260904192903 71 63 0.0 0.9 0.00 0.00 0.00 83 1021.6
20260904192804 71 209 0.0 0.9 0.00 0.00 0.00 83 1021.0
20260904192646 71 89 0.0 0.9 0.00 0.00 0.00 83 1021.5
20260904192306 71 26 0.0 0.9 0.00 0.00 0.00 83 1021.0
20260904191904 71 206 0.0 0.9 0.00 0.00 0.00 82 1021.5
20260904191803 71 230 0.0 0.9 0.00 0.00 0.00 82 1021.0
20260904191550 75 0 0.0 0.9 0.00 0.00 0.00 100 1022.4
20260904191401 71 241 0.0 0.9 0.00 0.00 0.00 82 1021.6
20260904191351 71 241 0.9 2.6 0.00 0.00 0.00 82 1021.5
20260904191303 71 237 0.0 0.9 0.00 0.00 0.00 82 1021.1
20260904191102 71 135 0.0 1.7 0.00 0.00 0.00 82 1021.5
20260904190803 71 89 0.0 0.9 0.00 0.00 0.00 82 1020.9
20260904190303 71 215 0.9 2.6 0.00 0.00 0.00 82 1021.0
20260904190047 75 301 0.9 1.7 0.00 0.00 0.00 100 1022.4
20260904185903 71 1 0.9 2.6 0.00 0.00 0.00 81 1021.6
20260904185803 72 319 0.9 1.7 0.00 0.00 0.00 81 1021.0
20260904185402 72 286 0.9 3.5 0.00 0.00 0.00 81 1021.6
20260904185306 72 293 1.7 2.6 0.00 0.00 0.00 81 1021.0
20260904185129 72 257 1.7 3.5 0.00 0.00 0.00 80 1021.6
20260904184804 72 307 0.9 2.6 0.00 0.00 0.00 80 1021.1
20260904184559 75 273 0.9 1.7 0.00 0.00 0.00 99 1022.4
20260904184403 73 316 1.7 3.5 0.00 0.00 0.00 80 1021.5
20260904184304 73 280 0.9 1.7 0.00 0.00 0.00 80 1021.0
20260904183902 73 206 0.0 1.7 0.00 0.00 0.00 80 1021.5
20260904183856 73 314 0.9 1.7 0.00 0.00 0.00 79 1021.5
20260904183803 73 264 0.0 1.7 0.00 0.00 0.00 80 1021.0
20260904183304 73 275 0.9 1.7 0.00 0.00 0.00 79 1020.9
20260904183043 75 0 0.0 0.9 0.00 0.00 0.00 99 1022.2
20260904182903 74 241 0.0 1.7 0.00 0.00 0.00 80 1021.3
20260904182803 74 243 0.9 1.7 0.00 0.00 0.00 80 1020.8
20260904182402 74 1 0.0 1.7 0.00 0.00 0.00 79 1021.3
20260904182306 74 292 0.0 0.9 0.00 0.00 0.00 79 1020.8
20260904181902 74 314 0.0 1.7 0.00 0.00 0.00 79 1021.2
20260904181803 74 289 0.0 1.7 0.00 0.00 0.00 79 1020.7
20260904181549 75 309 0.9 0.9 0.00 0.00 0.00 98 1022.0
20260904181402 74 45 0.9 1.7 0.00 0.00 0.00 78 1021.2
20260904181304 74 285 0.9 1.7 0.00 0.00 0.00 78 1020.7
20260904180902 74 269 0.9 1.7 0.00 0.00 0.00 78 1021.2
20260904180803 74 39 0.9 1.7 0.00 0.00 0.00 79 1020.6
20260904180403 74 286 0.9 1.7 0.00 0.00 0.00 79 1021.1
20260904180304 74 254 0.0 1.7 0.00 0.00 0.00 79 1020.5
20260904180059 75 0 0.9 1.7 0.00 0.00 0.00 98 1021.9
20260904175903 74 223 0.9 1.7 0.00 0.00 0.00 79 1021.1
20260904175804 74 249 0.0 1.7 0.00 0.00 0.00 79 1020.6
20260904175402 74 269 0.0 1.7 0.00 0.00 0.00 79 1021.1
20260904175305 74 0 0.0 0.9 0.00 0.00 0.00 79 1020.6
20260904174902 74 223 0.9 1.7 0.00 0.00 0.00 79 1021.1
20260904174803 74 255 0.9 1.7 0.00 0.00 0.00 79 1020.6
20260904174542 75 0 0.0 0.9 0.00 0.00 0.00 99 1021.9
20260904174402 74 331 0.0 0.9 0.00 0.00 0.00 79 1021.2
20260904174304 74 231 0.9 1.7 0.00 0.00 0.00 80 1020.5
20260904173903 74 321 0.9 3.5 0.00 0.00 0.00 80 1021.1
20260904173803 74 222 0.9 1.7 0.00 0.00 0.00 80 1020.5
20260904173408 74 206 0.9 3.5 0.00 0.00 0.00 80 1021.0
20260904173130 74 314 0.9 1.7 0.00 0.00 0.00 79 1020.9
20260904173050 75 309 0.0 1.7 0.00 0.00 0.00 99 1021.7
20260904172803 74 247 0.9 2.6 0.00 0.00 0.00 79 1020.3
20260904172403 74 231 0.9 1.7 0.00 0.00 0.00 79 1020.9
20260904172305 74 231 0.9 1.7 0.00 0.00 0.00 79 1020.3
20260904171902 74 213 0.9 2.6 0.00 0.00 0.00 79 1020.8
20260904171803 74 241 0.9 4.3 0.00 0.00 0.00 78 1020.2
20260904171547 75 319 1.7 2.6 0.00 0.00 0.00 98 1021.5
20260904171404 74 1 1.7 2.6 0.00 0.00 0.00 78 1020.7
20260904171304 74 267 0.9 2.6 0.00 0.00 0.00 78 1020.1
20260904170902 74 223 0.9 2.6 0.00 0.00 0.00 78 1020.7
20260904170403 74 314 0.9 2.6 0.00 0.00 0.00 78 1020.6
20260904170303 74 255 0.9 2.6 0.00 0.00 0.00 78 1020.1
20260904170045 75 0 0.9 1.7 0.00 0.00 0.00 98 1021.4
20260904165902 74 250 0.9 3.5 0.00 0.00 0.00 78 1020.6
20260904165803 74 249 0.9 2.6 0.00 0.00 0.00 78 1020.1
20260904165401 74 219 1.7 3.5 0.00 0.00 0.00 78 1020.6
20260904165305 74 219 0.9 2.6 0.00 0.00 0.00 79 1020.0
20260904164903 74 223 1.7 2.6 0.00 0.00 0.00 79 1020.5
20260904164550 75 205 0.9 2.6 0.00 0.00 0.00 97 1021.2
20260904164404 74 206 0.9 2.6 0.00 0.00 0.00 79 1020.4
20260904164303 74 225 1.7 2.6 0.00 0.00 0.00 78 1019.8
20260904163902 74 336 0.9 2.6 0.00 0.00 0.00 79 1020.4
20260904163402 74 269 0.9 2.6 0.00 0.00 0.00 79 1020.4
20260904163054 75 9 0.9 3.5 0.00 0.00 0.00 97 1021.2
20260904162902 74 51 1.7 3.5 0.00 0.00 0.00 79 1020.3
20260904162804 74 318 0.9 2.6 0.00 0.00 0.00 79 1019.8
20260904162402 74 324 1.7 3.5 0.00 0.00 0.00 79 1020.3
20260904162306 74 342 0.9 4.3 0.00 0.00 0.00 79 1019.8
20260904161903 74 279 1.7 5.2 0.00 0.00 0.00 79 1020.4
20260904161804 74 289 1.7 2.6 0.00 0.00 0.00 79 1019.9
20260904161544 75 324 1.7 3.5 0.00 0.00 0.00 97 1021.2
20260904161402 74 299 0.9 5.2 0.00 0.00 0.00 78 1020.5
20260904161304 74 297 1.7 5.2 0.00 0.00 0.00 79 1019.9
20260904160902 74 348 2.6 4.3 0.00 0.00 0.00 79 1020.5
20260904160804 74 274 0.9 4.3 0.00 0.00 0.00 79 1020.0
20260904160402 74 323 2.6 5.2 0.00 0.00 0.00 79 1020.7
20260904160304 74 329 1.7 7.8 0.00 0.00 0.00 79 1020.2
20260904160051 75 309 3.5 6.1 0.00 0.00 0.00 97 1021.6
20260904155902 74 3 3.5 5.2 0.00 0.00 0.00 79 1020.9
20260904155643 73 257 1.7 3.5 0.00 0.00 0.00 80 1020.9
20260904155353 73 45 1.7 5.2 0.00 0.00 0.00 80 1021.0
20260904155306 73 284 1.7 2.6 0.00 0.00 0.00 80 1020.3
20260904154625 73 314 1.7 5.2 0.00 0.00 0.00 80 1021.1
20260904154548 75 250 1.7 3.5 0.00 0.00 0.00 97 1021.8
20260904154303 73 301 1.7 6.1 0.00 0.00 0.00 80 1020.5
20260904154124 73 45 1.7 5.2 0.00 0.00 0.00 80 1021.2
20260904153803 73 308 1.7 4.3 0.00 0.00 0.00 80 1020.4
20260904153639 73 314 2.6 6.1 0.00 0.00 0.00 80 1021.1
20260904153057 75 215 1.7 3.5 0.00 0.00 0.00 97 1022.1
20260904152901 73 300 2.6 6.1 0.00 0.00 0.00 79 1021.3
20260904152803 73 312 1.7 5.2 0.00 0.00 0.00 79 1020.7
20260904152402 74 331 3.5 5.2 0.00 0.00 0.00 79 1021.3
20260904152306 74 309 1.7 5.2 0.00 0.00 0.00 79 1020.6
20260904151902 74 321 2.6 5.2 0.00 0.00 0.00 79 1021.4
20260904151803 74 317 1.7 2.6 0.00 0.00 0.00 79 1020.8
20260904151552 75 294 1.7 2.6 0.00 0.00 0.00 97 1022.3
20260904151420 74 1 1.7 4.3 0.00 0.00 0.00 79 1021.5
20260904151303 74 306 1.7 4.3 0.00 0.00 0.00 79 1020.9
20260904150903 74 1 1.7 4.3 0.00 0.00 0.00 79 1021.5
20260904150804 74 301 1.7 5.2 0.00 0.00 0.00 79 1020.9
20260904150404 74 306 1.7 4.3 0.00 0.00 0.00 79 1021.6
20260904150303 74 305 1.7 4.3 0.00 0.00 0.00 79 1021.0
20260904150050 75 315 1.7 5.2 0.00 0.00 0.00 97 1022.4
20260904145902 74 330 1.7 5.2 0.00 0.00 0.00 79 1021.7
20260904145803 74 288 0.9 6.1 0.00 0.00 0.00 79 1020.9
20260904145403 74 319 2.6 5.2 0.00 0.00 0.00 78 1021.6
20260904144903 74 231 1.7 4.3 0.00 0.00 0.00 77 1021.7
20260904144804 74 257 1.7 4.3 0.00 0.00 0.00 77 1021.0
20260904144548 75 275 2.6 3.5 0.00 0.00 0.00 97 1022.4
20260904144402 74 330 3.5 4.3 0.00 0.00 0.00 78 1021.6
20260904144303 75 320 2.6 4.3 0.00 0.00 0.00 78 1021.0
20260904143903 74 314 1.7 4.3 0.00 0.00 0.00 78 1021.9
20260904143804 75 311 1.7 4.3 0.00 0.00 0.00 77 1021.2
20260904143403 75 341 1.7 4.3 0.00 0.00 0.00 77 1022.0
20260904143303 75 294 1.7 4.3 0.00 0.00 0.00 77 1021.3
20260904143046 75 301 0.9 4.3 0.00 0.00 0.00 97 1022.8
20260904142903 75 1 1.7 4.3 0.00 0.00 0.00 77 1022.1
20260904142803 75 288 1.7 5.2 0.00 0.00 0.00 77 1021.3
20260904142402 75 1 3.5 4.3 0.00 0.00 0.00 77 1022.0
20260904142306 75 330 2.6 5.2 0.00 0.00 0.00 76 1021.3
20260904142128 75 223 2.6 4.3 0.00 0.00 0.00 77 1022.1
20260904141803 75 325 1.7 4.3 0.00 0.00 0.00 77 1021.5
20260904141603 75 286 1.7 6.1 0.00 0.00 0.00 97 1022.9
20260904141402 75 241 2.6 7.8 0.00 0.00 0.00 77 1022.1
20260904141304 75 312 2.6 7.8 0.00 0.00 0.00 77 1021.4
20260904140904 75 303 2.6 7.8 0.00 0.00 0.00 77 1022.2
20260904140803 75 286 1.7 5.2 0.00 0.00 0.00 77 1021.4
20260904140403 76 269 2.6 4.3 0.00 0.00 0.00 76 1022.2
20260904140051 75 332 1.7 4.3 0.00 0.00 0.00 97 1022.9
20260904135902 76 234 2.6 4.3 0.00 0.00 0.00 76 1022.1
20260904135803 76 319 1.7 4.3 0.00 0.00 0.00 77 1021.4
20260904135402 76 54 1.7 4.3 0.00 0.00 0.00 77 1022.2
20260904135306 76 282 1.7 4.3 0.00 0.00 0.00 77 1021.6
20260904134902 76 310 1.7 4.3 0.00 0.00 0.00 78 1022.3
20260904134803 76 294 1.7 4.3 0.00 0.00 0.00 78 1021.6
20260904134552 75 221 1.7 3.5 0.00 0.00 0.00 97 1023.0
20260904134402 76 334 1.7 4.3 0.00 0.00 0.00 77 1022.2
20260904134126 76 289 1.7 4.3 0.00 0.00 0.00 77 1022.3
20260904133803 76 278 2.6 7.8 0.00 0.00 0.00 77 1021.5
20260904133629 76 296 2.6 6.1 0.00 0.00 0.00 77 1022.2
20260904133303 76 326 2.6 5.2 0.00 0.00 0.00 77 1021.6
20260904133044 76 347 1.7 2.6 0.00 0.00 0.00 97 1023.0
20260904132903 76 259 2.6 6.1 0.00 0.00 0.00 77 1022.2
20260904132804 76 332 1.7 7.0 0.00 0.00 0.00 77 1021.5
20260904132404 76 283 1.7 6.1 0.00 0.00 0.00 77 1022.2
20260904132306 76 298 1.7 7.0 0.00 0.00 0.00 77 1021.5
20260904131904 76 314 2.6 6.1 0.00 0.00 0.00 77 1022.2
20260904131803 76 339 1.7 5.2 0.00 0.00 0.00 78 1021.5
20260904131604 75 286 0.9 3.5 0.00 0.00 0.00 97 1022.9
20260904131402 76 286 1.7 4.3 0.00 0.00 0.00 78 1022.2
20260904130902 76 250 1.7 5.2 0.00 0.00 0.00 78 1022.0
20260904130403 75 314 1.7 5.2 0.00 0.00 0.00 78 1022.0
20260904130303 75 311 1.7 2.6 0.00 0.00 0.00 78 1021.4
20260904130043 60 325 1.7 3.5 0.00 0.00 0.00 98 1022.9
20260904125902 75 278 1.7 3.5 0.00 0.00 0.00 79 1022.2
20260904125803 74 273 1.7 2.6 0.00 0.00 0.00 79 1021.5
20260904125402 74 314 0.9 3.5 0.00 0.00 0.00 81 1022.1
20260904124903 74 344 1.7 3.5 0.00 0.00 0.00 81 1022.0
20260904124803 73 269 0.9 2.6 0.00 0.00 0.00 81 1021.3
20260904124551 60 265 0.9 3.5 0.00 0.00 0.00 100 1022.7
20260904124402 73 1 0.9 3.5 0.00 0.00 0.00 82 1021.9
20260904124303 73 28 1.7 2.6 0.00 0.00 0.00 82 1021.2
20260904123903 73 28 0.9 3.5 0.00 0.00 0.00 82 1021.8
20260904123402 73 63 1.7 3.5 0.00 0.00 0.00 83 1021.8
20260904123304 72 304 0.9 2.6 0.00 0.00 0.00 83 1021.1
20260904123102 60 221 0.9 2.6 0.00 0.00 0.00 100 1022.6
20260904122903 72 223 1.7 3.5 0.00 0.00 0.00 84 1021.8
20260904122803 72 323 1.7 2.6 0.00 0.00 0.00 85 1021.1
20260904122403 71 337 0.9 2.6 0.00 0.00 0.00 85 1021.7
20260904122306 71 336 1.7 2.6 0.00 0.00 0.00 86 1021.0
20260904122126 71 296 1.7 3.5 0.00 0.00 0.00 87 1021.8
20260904121803 71 251 1.7 2.6 0.00 0.00 0.00 88 1021.0
20260904121543 60 144 0.9 2.6 0.00 0.00 0.00 100 1022.6
20260904121403 70 197 1.7 3.5 0.00 0.00 0.00 88 1021.8
20260904121303 70 327 1.7 2.6 0.00 0.00 0.00 89 1021.2
20260904120903 69 213 0.9 2.6 0.00 0.00 0.00 89 1021.9
20260904120803 69 339 0.9 2.6 0.00 0.00 0.00 90 1021.2
20260904120402 69 285 0.9 2.6 0.00 0.00 0.00 90 1021.9
20260904120047 60 0 0.9 1.7 0.00 0.00 0.00 100 1022.6
20260904115902 68 54 1.7 2.6 0.00 0.00 0.00 91 1022.0
20260904115803 68 2 0.9 2.6 0.00 0.00 0.00 91 1021.4
20260904115402 68 178 0.0 2.6 0.00 0.00 0.00 91 1022.0
20260904114902 68 324 0.9 2.6 0.00 0.00 0.00 92 1021.8
20260904114803 68 343 0.9 1.7 0.00 0.00 0.00 92 1021.1
20260904114546 60 321 0.0 2.6 0.00 0.00 0.00 100 1022.5
20260904114402 67 231 0.0 2.6 0.00 0.00 0.00 92 1021.8
20260904114303 67 351 0.9 1.7 0.00 0.00 0.00 93 1021.1
20260904113902 67 152 0.9 2.6 0.00 0.00 0.00 93 1021.8
20260904113803 67 39 0.9 2.6 0.00 0.00 0.00 93 1021.2
20260904113629 67 314 0.0 2.6 0.00 0.00 0.00 93 1021.9
20260904113303 67 271 0.9 1.7 0.00 0.00 0.00 93 1021.2
20260904113044 60 265 0.9 1.7 0.00 0.00 0.00 100 1022.5
20260904112902 67 314 0.9 2.6 0.00 0.00 0.00 93 1021.7
20260904112803 67 252 0.9 2.6 0.00 0.00 0.00 93 1021.0
20260904112402 67 306 1.7 2.6 0.00 0.00 0.00 93 1021.6
20260904112306 66 280 0.9 2.6 0.00 0.00 0.00 93 1021.0
20260904111904 66 296 0.9 2.6 0.00 0.00 0.00 94 1021.6
20260904111859 66 331 0.9 2.6 0.00 0.00 0.00 94 1021.5
20260904111806 66 335 0.9 2.6 0.00 0.00 0.00 94 1021.0
20260904111637 66 331 0.9 2.6 0.00 0.00 0.00 94 1021.5
20260904111555 60 309 0.9 1.7 0.00 0.00 0.00 100 1022.2
20260904111304 66 244 0.9 2.6 0.00 0.00 0.00 94 1020.8
20260904110902 66 45 0.9 1.7 0.00 0.00 0.00 94 1021.4
20260904110803 66 110 0.9 1.7 0.00 0.00 0.00 94 1020.6
20260904110403 66 72 0.9 1.7 0.00 0.00 0.00 94 1021.5
20260904110303 66 61 0.9 1.7 0.00 0.00 0.00 94 1020.8
20260904110127 66 20 1.7 1.7 0.00 0.00 0.00 94 1021.6
20260904110046 60 51 0.9 1.7 0.00 0.00 0.00 100 1022.3
20260904105804 66 333 0.9 1.7 0.00 0.00 0.00 94 1021.0
20260904105402 66 269 0.9 1.7 0.00 0.00 0.00 94 1021.8
20260904105305 66 307 0.9 1.7 0.00 0.00 0.00 94 1021.1
20260904104902 66 250 0.0 1.7 0.00 0.00 0.00 94 1021.9
20260904104543 60 51 0.0 0.9 0.00 0.00 0.00 100 1022.6
20260904104402 66 241 0.9 1.7 0.00 0.00 0.00 95 1021.9
20260904103904 66 223 0.9 1.7 0.00 0.00 0.00 95 1021.8
20260904103804 65 224 0.9 1.7 0.00 0.00 0.00 95 1021.1
20260904103402 65 135 0.9 1.7 0.00 0.00 0.00 95 1021.7
20260904103305 65 206 0.9 1.7 0.00 0.00 0.00 95 1021.0
20260904103128 65 234 0.9 1.7 0.00 0.00 0.00 95 1021.6
20260904103044 60 229 0.9 1.7 0.00 0.00 0.00 100 1022.4
20260904102622 65 1 0.9 1.7 0.00 0.00 0.00 95 1021.5
20260904101902 65 54 0.9 1.7 0.00 0.00 0.00 95 1021.5
20260904101804 65 326 0.9 1.7 0.00 0.00 0.00 95 1020.9
20260904101600 60 309 0.0 1.7 0.00 0.00 0.00 100 1022.3
20260904101402 65 269 0.9 1.7 0.00 0.00 0.00 95 1021.6
20260904101123 65 223 0.9 1.7 0.00 0.00 0.00 95 1021.6
20260904100803 65 53 0.9 1.7 0.00 0.00 0.00 95 1020.9
20260904100405 65 269 0.9 2.6 0.00 0.00 0.00 95 1021.6
20260904100047 60 93 0.9 1.7 0.00 0.00 0.00 100 1022.2
20260904095902 65 56 0.9 2.6 0.00 0.00 0.00 95 1021.5
20260904095804 65 273 0.9 2.6 0.00 0.00 0.00 95 1020.9
20260904095402 65 223 0.9 1.7 0.00 0.00 0.00 95 1021.6
20260904095306 65 279 0.9 1.7 0.00 0.00 0.00 95 1021.0
20260904094902 65 161 0.9 1.7 0.00 0.00 0.00 95 1021.7
20260904094803 64 262 0.9 1.7 0.00 0.00 0.00 95 1021.1
20260904094543 60 292 0.0 0.9 0.00 0.00 0.00 100 1022.4
20260904094402 64 35 0.9 1.7 0.00 0.00 0.00 95 1021.8
20260904094303 64 224 0.9 1.7 0.00 0.00 0.00 95 1021.0
20260904093902 64 28 0.9 1.7 0.00 0.00 0.00 95 1021.7
20260904093803 64 209 0.9 1.7 0.00 0.00 0.00 95 1021.0
20260904093402 64 135 0.9 0.9 0.00 0.00 0.00 95 1021.7
20260904093304 64 215 0.9 1.7 0.00 0.00 0.00 95 1020.9
20260904093043 60 221 0.0 1.7 0.00 0.00 0.00 100 1022.3
20260904092902 64 1 0.9 0.9 0.00 0.00 0.00 95 1021.7
20260904092804 64 350 0.9 1.7 0.00 0.00 0.00 96 1020.8
20260904092401 64 45 0.9 1.7 0.00 0.00 0.00 95 1021.7
20260904091903 63 178 0.9 2.6 0.00 0.00 0.00 95 1021.9
20260904091803 63 178 0.9 1.7 0.00 0.00 0.00 95 1021.1
20260904091629 63 193 1.7 2.6 0.00 0.00 0.00 95 1021.9
20260904091550 60 196 0.9 1.7 0.00 0.00 0.00 100 1022.5
20260904091303 63 147 0.9 2.6 0.00 0.00 0.00 95 1021.1
20260904090903 63 216 0.9 1.7 0.00 0.00 0.00 95 1021.8
20260904090804 63 228 0.9 1.7 0.00 0.00 0.00 95 1021.1
20260904090402 63 269 0.9 1.7 0.00 0.00 0.00 95 1021.9
20260904090304 63 55 0.9 1.7 0.00 0.00 0.00 95 1021.0
20260904090125 63 178 0.9 1.7 0.00 0.00 0.00 95 1021.8
20260904090046 60 162 0.0 0.9 0.00 0.00 0.00 100 1022.5
20260904085804 63 8 0.9 1.7 0.00 0.00 0.00 95 1021.0
20260904085407 63 135 0.9 0.9 0.00 0.00 0.00 95 1021.8
20260904085306 63 124 0.9 0.9 0.00 0.00 0.00 95 1021.1
20260904085128 63 178 0.0 0.9 0.00 0.00 0.00 95 1021.9
20260904084804 63 142 0.9 0.9 0.00 0.00 0.00 95 1021.1
20260904084543 60 265 0.0 0.9 0.00 0.00 0.00 100 1022.6
20260904084402 63 223 0.0 0.9 0.00 0.00 0.00 95 1021.9
20260904083904 63 216 0.9 1.7 0.00 0.00 0.00 95 1022.0
20260904083404 62 223 0.9 1.7 0.00 0.00 0.00 95 1021.9
20260904083304 62 204 0.9 1.7 0.00 0.00 0.00 95 1021.2
20260904083057 60 9 0.9 0.9 0.00 0.00 0.00 100 1022.6
20260904082902 62 45 0.0 1.7 0.00 0.00 0.00 95 1022.0
20260904082804 62 233 0.9 1.7 0.00 0.00 0.00 95 1021.2
20260904082402 62 223 0.9 1.7 0.00 0.00 0.00 95 1022.0
20260904082306 62 187 0.9 1.7 0.00 0.00 0.00 95 1021.2
20260904081903 62 197 0.9 1.7 0.00 0.00 0.00 95 1022.0
20260904081804 62 208 0.9 1.7 0.00 0.00 0.00 95 1021.2
20260904081550 60 178 0.0 0.9 0.00 0.00 0.00 100 1022.5
20260904081402 62 45 0.9 1.7 0.00 0.00 0.00 95 1022.0
20260904081304 62 201 0.9 1.7 0.00 0.00 0.00 95 1021.2
20260904080903 62 193 0.9 1.7 0.00 0.00 0.00 95 1021.9
20260904080402 62 223 0.9 1.7 0.00 0.00 0.00 95 1021.8
20260904080045 60 196 0.0 1.7 0.00 0.00 0.00 100 1022.5
20260904075902 62 1 0.9 2.6 0.00 0.00 0.00 95 1021.8
20260904075804 62 171 0.9 2.6 0.00 0.00 0.00 95 1021.1
20260904075634 62 213 0.9 2.6 0.00 0.00 0.00 95 1021.8
20260904074901 61 89 0.9 1.7 0.00 0.00 0.00 95 1021.6
20260904074803 61 275 0.9 1.7 0.00 0.00 0.00 95 1020.9
20260904074612 60 178 0.0 0.9 0.00 0.00 0.00 100 1022.3
20260904074403 61 206 0.9 1.7 0.00 0.00 0.00 95 1021.7
20260904074351 61 135 0.9 1.7 0.00 0.00 0.00 95 1021.7
20260904074304 61 219 0.9 1.7 0.00 0.00 0.00 95 1021.0
20260904073804 61 208 0.9 1.7 0.00 0.00 0.00 95 1020.9
20260904073402 61 223 0.9 1.7 0.00 0.00 0.00 95 1021.6
20260904073304 61 211 0.9 1.7 0.00 0.00 0.00 95 1020.9
20260904073044 60 0 0.0 0.9 0.00 0.00 0.00 100 1022.2
20260904072902 61 206 0.9 1.7 0.00 0.00 0.00 94 1021.5
20260904072803 61 224 0.9 1.7 0.00 0.00 0.00 94 1020.8
20260904072403 61 223 0.9 1.7 0.00 0.00 0.00 94 1021.4
20260904071903 61 223 0.0 1.7 0.00 0.00 0.00 94 1021.5
20260904071803 61 226 0.9 1.7 0.00 0.00 0.00 94 1020.8
20260904071551 60 178 0.0 0.9 0.00 0.00 0.00 100 1022.2
20260904071402 61 223 0.9 0.9 0.00 0.00 0.00 94 1021.5
20260904071304 61 214 0.9 0.9 0.00 0.00 0.00 94 1020.7
20260904071127 61 269 0.9 1.7 0.00 0.00 0.00 94 1021.4
20260904070402 61 206 0.9 1.7 0.00 0.00 0.00 94 1021.2
20260904070304 61 228 0.9 1.7 0.00 0.00 0.00 94 1020.4
20260904070133 61 45 0.0 1.7 0.00 0.00 0.00 94 1021.0
20260904070046 60 0 0.0 0.9 0.00 0.00 0.00 100 1021.8
20260904065804 61 219 0.9 1.7 0.00 0.00 0.00 94 1020.2
20260904065402 61 269 0.9 1.7 0.00 0.00 0.00 94 1020.9
20260904065306 61 65 0.0 0.9 0.00 0.00 0.00 94 1020.1
20260904064902 61 314 0.0 0.9 0.00 0.00 0.00 94 1020.8
20260904064804 61 276 0.0 0.9 0.00 0.00 0.00 94 1020.1
20260904064543 60 265 0.9 0.9 0.00 0.00 0.00 100 1021.6
20260904064402 61 241 0.9 0.9 0.00 0.00 0.00 94 1020.8
20260904064304 61 237 0.9 0.9 0.00 0.00 0.00 94 1020.0
20260904064126 61 213 0.9 0.9 0.00 0.00 0.00 94 1020.7
20260904063804 61 223 0.9 0.9 0.00 0.00 0.00 94 1019.9
20260904063402 61 45 0.9 0.9 0.00 0.00 0.00 94 1020.6
20260904063304 61 231 0.9 0.9 0.00 0.00 0.00 94 1019.8
20260904063054 60 212 0.0 0.9 0.00 0.00 0.00 100 1021.2
20260904062903 61 213 0.9 0.9 0.00 0.00 0.00 94 1020.6
20260904062804 61 215 0.9 0.9 0.00 0.00 0.00 94 1019.8
20260904062401 61 296 0.0 0.9 0.00 0.00 0.00 94 1020.4
20260904062306 61 340 0.0 0.9 0.00 0.00 0.00 94 1019.7
20260904061902 61 241 0.0 1.7 0.00 0.00 0.00 94 1020.3
20260904061803 61 240 0.0 0.9 0.00 0.00 0.00 94 1019.7
20260904061631 61 45 0.0 1.7 0.00 0.00 0.00 94 1020.3
20260904061558 60 0 0.0 0.9 0.00 0.00 0.00 100 1021.0
20260904061304 61 273 0.9 0.9 0.00 0.00 0.00 94 1019.6
20260904060904 61 269 0.0 1.7 0.00 0.00 0.00 94 1020.2
20260904060804 61 212 0.0 0.9 0.00 0.00 0.00 94 1019.5
20260904060620 61 269 0.9 0.9 0.00 0.00 0.00 94 1020.2
20260904060602 61 269 0.9 1.7 0.00 0.00 0.00 94 1020.2
20260904060107 60 165 0.0 1.7 0.00 0.00 0.00 100 1020.9
20260904055804 61 220 0.9 1.7 0.00 0.00 0.00 94 1019.5
20260904055402 61 45 0.9 1.7 0.00 0.00 0.00 94 1020.2
20260904055306 61 222 0.9 1.7 0.00 0.00 0.00 94 1019.5
20260904054902 61 223 0.9 1.7 0.00 0.00 0.00 94 1020.1
20260904054803 61 205 0.9 1.7 0.00 0.00 0.00 94 1019.4
20260904054544 60 0 0.0 0.9 0.00 0.00 0.00 100 1020.7
20260904054401 61 223 0.9 0.9 0.00 0.00 0.00 94 1020.0
20260904054304 61 223 0.0 0.9 0.00 0.00 0.00 94 1019.3
20260904053902 61 206 0.0 0.9 0.00 0.00 0.00 93 1020.0
20260904053804 61 175 0.0 0.9 0.00 0.00 0.00 93 1019.2
20260904053402 61 197 0.9 1.7 0.00 0.00 0.00 93 1020.0
20260904053303 61 254 0.9 1.7 0.00 0.00 0.00 93 1019.3
20260904053044 60 205 0.9 0.9 0.00 0.00 0.00 100 1020.7
20260904052902 61 269 0.9 1.7 0.00 0.00 0.00 93 1019.9
20260904052804 61 236 0.9 1.7 0.00 0.00 0.00 93 1019.3
20260904052402 61 1 0.0 0.9 0.00 0.00 0.00 93 1020.0
20260904052306 61 32 0.0 0.9 0.00 0.00 0.00 93 1019.2
20260904051903 61 269 0.0 0.9 0.00 0.00 0.00 94 1020.0
20260904051803 61 244 0.0 0.9 0.00 0.00 0.00 94 1019.2
20260904051549 60 0 0.0 0.9 0.00 0.00 0.00 100 1020.6
20260904051401 61 45 0.9 0.9 0.00 0.00 0.00 94 1019.8
20260904051304 61 221 0.9 0.9 0.00 0.00 0.00 94 1019.1
20260904050902 61 213 0.9 0.9 0.00 0.00 0.00 94 1019.8
20260904050844 61 241 0.0 0.9 0.00 0.00 0.00 94 1019.8
20260904050044 60 221 0.0 0.9 0.00 0.00 0.00 100 1020.6
20260904045903 61 45 0.0 0.9 0.00 0.00 0.00 94 1019.8
20260904045404 61 45 0.0 0.9 0.00 0.00 0.00 94 1019.9
20260904045306 61 234 0.0 0.9 0.00 0.00 0.00 94 1019.2
20260904045123 61 269 0.0 0.9 0.00 0.00 0.00 94 1019.9
20260904044803 61 260 0.0 0.9 0.00 0.00 0.00 94 1019.2
20260904044627 60 269 0.0 0.9 0.00 0.00 0.00 93 1019.9
20260904044549 60 0 0.0 0.9 0.00 0.00 0.00 100 1020.7
20260904044303 60 179 0.0 0.9 0.00 0.00 0.00 93 1019.2
20260904043904 60 269 0.0 0.9 0.00 0.00 0.00 93 1019.9
20260904043803 60 42 0.0 0.9 0.00 0.00 0.00 93 1019.1
20260904043402 60 314 0.0 0.9 0.00 0.00 0.00 93 1019.9
20260904043304 60 86 0.0 0.9 0.00 0.00 0.00 93 1019.2
20260904043048 60 0 0.0 0.9 0.00 0.00 0.00 100 1020.7
20260904042903 60 178 0.0 0.9 0.00 0.00 0.00 93 1019.8
20260904042803 60 150 0.0 0.9 0.00 0.00 0.00 93 1019.3
20260904042401 60 135 0.0 0.9 0.00 0.00 0.00 93 1019.9
20260904041903 60 161 0.9 1.7 0.00 0.00 0.00 93 1020.0
20260904041804 60 161 0.9 1.7 0.00 0.00 0.00 93 1019.4
20260904041545 60 0 0.9 1.7 0.00 0.00 0.00 100 1020.8
20260904041401 60 178 0.0 1.7 0.00 0.00 0.00 93 1019.9
20260904041304 60 168 0.0 1.7 0.00 0.00 0.00 92 1019.3
20260904040901 60 178 0.0 0.9 0.00 0.00 0.00 92 1019.9
20260904040803 60 100 0.0 0.9 0.00 0.00 0.00 93 1019.3
20260904040628 61 63 0.0 0.9 0.00 0.00 0.00 92 1020.1
20260904040304 61 337 0.0 0.9 0.00 0.00 0.00 92 1019.4
20260904040042 60 0 0.0 0.9 0.00 0.00 0.00 100 1020.8
20260904035901 61 1 0.0 0.9 0.00 0.00 0.00 92 1020.1
20260904035408 61 45 0.0 0.9 0.00 0.00 0.00 92 1020.2
20260904034906 61 1 0.0 1.7 0.00 0.00 0.00 93 1020.2
20260904034803 61 199 0.0 0.9 0.00 0.00 0.00 93 1019.5
20260904034623 61 1 0.0 1.7 0.00 0.00 0.00 93 1020.2
20260904034559 60 0 0.0 0.9 0.00 0.00 0.00 100 1020.9
20260904034303 61 60 0.9 1.7 0.00 0.00 0.00 93 1019.4
20260904034128 61 45 0.0 0.9 0.00 0.00 0.00 92 1020.2
20260904033803 61 47 0.0 0.9 0.00 0.00 0.00 92 1019.5
20260904033405 61 56 0.0 0.9 0.00 0.00 0.00 92 1020.2
20260904033304 61 44 0.0 0.9 0.00 0.00 0.00 92 1019.5
20260904033047 60 0 0.0 0.9 0.00 0.00 0.00 100 1020.9
20260904032902 60 45 0.0 0.9 0.00 0.00 0.00 91 1020.1
20260904032804 61 50 0.0 0.9 0.00 0.00 0.00 91 1019.4
20260904032623 60 135 0.9 0.9 0.00 0.00 0.00 90 1020.1
20260904032305 61 46 0.0 0.9 0.00 0.00 0.00 90 1019.4
20260904031906 61 223 0.0 0.9 0.00 0.00 0.00 91 1020.2
20260904031804 61 275 0.0 0.9 0.00 0.00 0.00 91 1019.5
20260904031541 60 0 0.0 0.9 0.00 0.00 0.00 100 1021.0
20260904031402 61 269 0.0 0.9 0.00 0.00 0.00 90 1020.2
20260904031304 61 346 0.0 0.9 0.00 0.00 0.00 91 1019.6
20260904030902 61 45 0.0 0.9 0.00 0.00 0.00 90 1020.2
20260904030402 61 269 0.0 0.9 0.00 0.00 0.00 90 1020.2
20260904030303 61 282 0.0 0.9 0.00 0.00 0.00 90 1019.5
20260904030044 61 0 0.0 0.9 0.00 0.00 0.00 100 1021.0
20260904025902 61 314 0.0 0.9 0.00 0.00 0.00 90 1020.3
20260904025803 61 201 0.0 0.9 0.00 0.00 0.00 91 1019.6
20260904025403 61 314 0.0 0.9 0.00 0.00 0.00 91 1020.2
20260904025306 61 270 0.0 0.9 0.00 0.00 0.00 91 1019.6
20260904024902 62 269 0.0 0.9 0.00 0.00 0.00 91 1020.1
20260904024627 62 45 0.0 0.9 0.00 0.00 0.00 90 1020.3
20260904024543 61 0 0.0 0.9 0.00 0.00 0.00 100 1021.0
20260904024303 62 61 0.0 0.9 0.00 0.00 0.00 90 1019.5
20260904023839 62 223 0.0 0.9 0.00 0.00 0.00 90 1020.3
20260904023804 62 221 0.9 1.7 0.00 0.00 0.00 90 1019.5
20260904023337 62 269 0.0 0.9 0.00 0.00 0.00 90 1020.2
20260904023303 62 19 0.0 0.9 0.00 0.00 0.00 90 1019.5
20260904023046 62 0 0.0 0.9 0.00 0.00 0.00 100 1020.9
20260904022837 62 45 0.0 0.9 0.00 0.00 0.00 90 1020.2
20260904022804 62 48 0.0 0.9 0.00 0.00 0.00 91 1019.5
20260904022340 62 314 0.0 0.9 0.00 0.00 0.00 91 1020.3
20260904022305 62 52 0.0 0.9 0.00 0.00 0.00 91 1019.6
20260904021832 62 206 0.0 0.9 0.00 0.00 0.00 91 1020.4
20260904021803 62 258 0.0 0.9 0.00 0.00 0.00 91 1019.6
20260904021548 62 0 0.0 1.7 0.00 0.00 0.00 100 1021.0
20260904021331 63 45 0.9 0.9 0.00 0.00 0.00 91 1020.3
20260904020831 63 45 0.9 0.9 0.00 0.00 0.00 91 1020.2
20260904020803 63 7 0.0 0.9 0.00 0.00 0.00 91 1019.6
20260904020331 63 45 0.9 0.9 0.00 0.00 0.00 90 1020.2
20260904020304 63 87 0.0 0.9 0.00 0.00 0.00 90 1019.6
20260904020042 62 51 0.0 0.9 0.00 0.00 0.00 100 1021.1
20260904015831 63 45 0.0 0.9 0.00 0.00 0.00 90 1020.3
20260904015804 63 73 0.0 0.9 0.00 0.00 0.00 90 1019.5
20260904015556 63 269 0.0 0.9 0.00 0.00 0.00 90 1020.4
20260904015306 63 8 0.0 0.9 0.00 0.00 0.00 90 1019.6
20260904014832 63 1 0.0 0.9 0.00 0.00 0.00 90 1020.4
20260904014803 63 75 0.0 0.9 0.00 0.00 0.00 90 1019.7
20260904014555 63 45 0.9 0.9 0.00 0.00 0.00 90 1020.6
20260904014548 63 0 0.0 0.9 0.00 0.00 0.00 100 1021.3
20260904014319 64 241 0.0 0.9 0.00 0.00 0.00 90 1020.5
20260904014303 63 111 0.9 0.9 0.00 0.00 0.00 90 1019.8
20260904013804 64 290 0.0 0.9 0.00 0.00 0.00 90 1019.9
20260904013328 64 1 0.0 0.9 0.00 0.00 0.00 90 1020.7
20260904013304 64 37 0.0 0.9 0.00 0.00 0.00 90 1020.0
20260904013041 63 0 0.0 0.9 0.00 0.00 0.00 100 1021.5
20260904012830 64 241 0.0 0.9 0.00 0.00 0.00 90 1020.8
20260904012804 64 251 0.0 0.9 0.00 0.00 0.00 90 1020.1
20260904012330 64 269 0.0 0.9 0.00 0.00 0.00 90 1020.8
20260904012102 64 45 0.0 0.9 0.00 0.00 0.00 89 1020.9
20260904011804 64 40 0.0 0.9 0.00 0.00 0.00 89 1020.2
20260904011553 64 269 0.0 0.9 0.00 0.00 0.00 89 1020.8
20260904011544 64 0 0.0 0.9 0.00 0.00 0.00 100 1021.6
20260904010825 64 45 0.0 0.9 0.00 0.00 0.00 89 1020.8
20260904010323 64 223 0.0 0.9 0.00 0.00 0.00 89 1020.9
20260904010053 64 0 0.0 0.9 0.00 0.00 0.00 100 1021.6
20260904005822 65 1 0.0 0.9 0.00 0.00 0.00 90 1020.8
20260904005803 64 42 0.0 0.9 0.00 0.00 0.00 90 1020.2
20260904005324 65 45 0.0 0.9 0.00 0.00 0.00 89 1020.9
20260904005306 64 178 0.0 0.9 0.00 0.00 0.00 89 1020.2
20260904005043 65 178 0.0 0.9 0.00 0.00 0.00 89 1020.9
20260904004803 65 174 0.0 0.9 0.00 0.00 0.00 89 1020.2
20260904004557 64 0 0.0 0.9 0.00 0.00 0.00 100 1021.7
20260904004321 65 178 0.0 0.9 0.00 0.00 0.00 88 1020.9
20260904004304 65 194 0.0 0.9 0.00 0.00 0.00 88 1020.3
20260904003820 65 178 0.0 0.9 0.00 0.00 0.00 88 1020.9
20260904003803 65 139 0.0 0.9 0.00 0.00 0.00 88 1020.2
20260904003322 65 178 0.0 0.9 0.00 0.00 0.00 88 1020.9
20260904003304 65 172 0.0 0.9 0.00 0.00 0.00 88 1020.2
20260904003042 65 0 0.0 0.9 0.00 0.00 0.00 100 1021.6
20260904002820 65 178 0.0 0.9 0.00 0.00 0.00 87 1020.9
20260904002803 65 161 0.0 0.9 0.00 0.00 0.00 87 1020.3
20260904002322 65 45 0.0 0.9 0.00 0.00 0.00 87 1020.8
20260904001819 65 269 0.0 0.9 0.00 0.00 0.00 87 1020.8
20260904001804 65 63 0.0 0.9 0.00 0.00 0.00 87 1020.3
20260904001546 65 0 0.0 0.9 0.00 0.00 0.00 100 1021.6
20260904001323 66 269 0.0 0.9 0.00 0.00 0.00 87 1020.8
20260904001303 66 232 0.9 0.9 0.00 0.00 0.00 87 1020.2
20260904000819 66 269 0.0 0.9 0.00 0.00 0.00 87 1020.8
20260904000803 66 269 0.0 0.9 0.00 0.00 0.00 87 1020.2
20260904000325 66 223 0.0 1.7 0.00 0.00 0.00 87 1020.8
20260904000304 66 192 0.9 0.9 0.00 0.00 0.00 87 1020.2
20260904000113 66 93 0.0 0.9 0.00 0.00 0.00 100 1021.6
20260904000040 66 213 0.9 1.7 0.00 0.00 0.00 87 1020.8
20260903235804 66 217 0.9 1.7 0.00 0.00 0.00 87 1020.3
20260903235329 66 223 0.9 0.9 0.00 0.00 0.00 86 1020.9
20260903234820 66 197 0.0 0.9 0.00 0.00 0.00 86 1020.9
20260903234804 66 221 0.0 0.9 0.00 0.00 0.00 86 1020.2
20260903234546 66 0 0.0 0.9 0.00 0.00 0.00 100 1021.6
20260903234329 67 314 0.0 0.9 0.00 0.00 0.00 86 1020.8
20260903234304 66 233 0.0 0.9 0.00 0.00 0.00 85 1020.2
20260903233819 67 178 0.0 0.9 0.00 0.00 0.00 85 1020.8
20260903233327 67 1 0.0 1.7 0.00 0.00 0.00 85 1020.9
20260903233304 67 233 0.0 0.9 0.00 0.00 0.00 85 1020.2
20260903233044 66 265 0.0 0.9 0.00 0.00 0.00 100 1021.6
20260903232821 67 45 0.9 1.7 0.00 0.00 0.00 85 1020.9
20260903232803 67 39 0.9 1.7 0.00 0.00 0.00 85 1020.2
20260903232612 67 223 0.0 0.9 0.00 0.00 0.00 84 1020.8
20260903231820 67 178 0.0 0.9 0.00 0.00 0.00 84 1020.8
20260903231804 67 89 0.0 0.9 0.00 0.00 0.00 84 1020.1
20260903231604 68 45 0.0 0.9 0.00 0.00 0.00 84 1020.7
20260903231548 61 51 0.0 0.9 0.00 0.00 0.00 100 1021.5
20260903231304 68 336 0.0 0.9 0.00 0.00 0.00 84 1020.1
20260903230818 68 45 0.9 0.9 0.00 0.00 0.00 83 1020.7
20260903230804 68 236 0.0 0.9 0.00 0.00 0.00 83 1020.1
20260903230321 68 197 0.0 0.9 0.00 0.00 0.00 83 1020.8
20260903230304 68 245 0.0 0.9 0.00 0.00 0.00 83 1020.1
20260903230048 61 0 0.0 0.9 0.00 0.00 0.00 100 1021.5
20260903225817 68 206 0.0 0.9 0.00 0.00 0.00 83 1020.8
20260903225803 68 15 0.0 0.9 0.00 0.00 0.00 83 1020.1
20260903225320 69 223 0.0 0.9 0.00 0.00 0.00 83 1020.8
20260903225306 69 12 0.0 0.9 0.00 0.00 0.00 83 1020.1
20260903225041 69 89 0.0 0.9 0.00 0.00 0.00 83 1020.8
20260903224803 69 65 0.0 0.9 0.00 0.00 0.00 83 1020.1
20260903224551 69 45 0.0 0.9 0.00 0.00 0.00 84 1020.9
20260903224543 61 0 0.0 0.9 0.00 0.00 0.00 100 1021.5
20260903224304 69 134 0.0 0.9 0.00 0.00 0.00 84 1020.2
20260903223817 69 135 0.0 0.9 0.00 0.00 0.00 83 1020.9